When you browse on this site, cookies collect data to enhance your experience and personalize the content and advertising you see.
Visit our Privacy Policy to learn more. By continuing to use the site, you agree to this use of cookies and data.
  • In Portugal
  • List of Countries
  • For 7 days
  • Water Temperature
  • Satellite Maps
  • Weather Map
  • Weather Widgets
  • user-avatar
    Login

    Hourly Weather Canillo

    Today, 24 March, Sunday

    Time Temperature Precipitation Wind Pressure Humidity
    00:00 +3°C° 0 mm 1 mps 620 mmHg 68%
    01:00 +3°C° 0 mm 1 mps 620 mmHg 67%
    02:00 +3°C° 0 mm 1 mps 620 mmHg 66%
    03:00 +3°C° 0 mm 1 mps 620 mmHg 65%
    04:00 +3°C° 0 mm 1 mps 620 mmHg 64%
    05:00 +3°C° 0 mm 1 mps 620 mmHg 63%
    06:00 +3°C° 0 mm 1 mps 620 mmHg 62%
    07:00 +5°C° 0 mm 1 mps 621 mmHg 54%
    08:00 +8°C° 0 mm 1 mps 622 mmHg 46%
    09:00 +11°C° 0 mm 1 mps 623 mmHg 38%
    10:00 +12°C° 0 mm 1 mps 623 mmHg 37%
    11:00 +13°C° 0 mm 1 mps 624 mmHg 35%
    12:00 +14°C° 0 mm 1 mps 624 mmHg 34%
    13:00 +13°C° 0.1 mm 1 mps 623 mmHg 38%
    14:00 +12°C° 0.1 mm 1 mps 623 mmHg 42%
    15:00 +12°C° 0.1 mm 2 mps 622 mmHg 45%
    16:00 +10°C° 0.6 mm 1 mps 622 mmHg 57%
    17:00 +8°C° 0.6 mm 1 mps 621 mmHg 68%
    18:00 +7°C° 0.6 mm 1 mps 620 mmHg 79%
    19:00 +6°C° 0.2 mm 1 mps 620 mmHg 84%
    20:00 +5°C° 0.2 mm 1 mps 620 mmHg 88%
    21:00 +4°C° 0.2 mm 1 mps 620 mmHg 92%
    22:00 +3°C° 0 mm 1 mps 619 mmHg 92%
    23:00 +3°C° 0 mm 1 mps 619 mmHg 93%

    Tomorrow, 25 March, Monday

    Time Temperature Precipitation Wind Pressure Humidity
    00:00 +3°C° 0 mm 1 mps 619 mmHg 94%
    01:00 +2°C° 0 mm 1 mps 619 mmHg 90%
    02:00 +2°C° 0 mm 1 mps 618 mmHg 87%
    03:00 +1°C° 0 mm 1 mps 618 mmHg 84%
    04:00 +1°C° 0 mm 1 mps 618 mmHg 81%
    05:00 +1°C° 0 mm 1 mps 618 mmHg 78%
    06:00 0°C° 0 mm 1 mps 618 mmHg 76%
    07:00 +2°C° 0 mm 2 mps 619 mmHg 70%
    08:00 +4°C° 0 mm 2 mps 620 mmHg 64%
    09:00 +6°C° 0 mm 2 mps 621 mmHg 58%
    10:00 +7°C° 0 mm 2 mps 621 mmHg 55%
    11:00 +8°C° 0 mm 2 mps 621 mmHg 51%
    12:00 +9°C° 0 mm 3 mps 621 mmHg 48%
    13:00 +8°C° 0 mm 3 mps 620 mmHg 49%
    14:00 +8°C° 0 mm 3 mps 620 mmHg 50%
    15:00 +7°C° 0 mm 3 mps 619 mmHg 50%
    16:00 +4°C° 0 mm 3 mps 619 mmHg 59%
    17:00 +2°C° 0 mm 3 mps 618 mmHg 67%
    18:00 0°C° 0 mm 3 mps 617 mmHg 75%
    19:00 -1°C° 0 mm 3 mps 617 mmHg 78%
    20:00 -1°C° 0 mm 3 mps 618 mmHg 81%
    21:00 -2°C° 0 mm 3 mps 618 mmHg 84%
    22:00 -2°C° 0 mm 3 mps 618 mmHg 85%
    23:00 -2°C° 0 mm 3 mps 618 mmHg 86%

    Day after tomorrow, 26 March, Tuesday

    Time Temperature Precipitation Wind Pressure Humidity
    00:00 -3°C° 0 mm 4 mps 618 mmHg 87%
    01:00 -4°C° 0 mm 3 mps 618 mmHg 86%
    02:00 -4°C° 0 mm 3 mps 618 mmHg 85%
    03:00 -5°C° 0 mm 3 mps 618 mmHg 84%
    04:00 -5°C° 0 mm 3 mps 618 mmHg 78%
    05:00 -6°C° 0 mm 3 mps 618 mmHg 72%
    06:00 -6°C° 0 mm 3 mps 618 mmHg 65%
    07:00 -4°C° 0 mm 3 mps 619 mmHg 52%
    08:00 -2°C° 0 mm 4 mps 620 mmHg 39%
    09:00 0°C° 0 mm 4 mps 620 mmHg 26%
    10:00 +1°C° 0 mm 4 mps 621 mmHg 23%
    11:00 +4°C° 0 mm 4 mps 621 mmHg 20%
    12:00 +5°C° 0 mm 4 mps 622 mmHg 18%
    13:00 +5°C° 0 mm 4 mps 621 mmHg 21%
    14:00 +5°C° 0 mm 3 mps 621 mmHg 24%
    15:00 +5°C° 0 mm 3 mps 620 mmHg 27%
    16:00 +3°C° 0 mm 3 mps 620 mmHg 36%
    17:00 +1°C° 0 mm 3 mps 619 mmHg 44%
    18:00 -1°C° 0 mm 2 mps 619 mmHg 53%
    19:00 -2°C° 0 mm 2 mps 619 mmHg 54%
    20:00 -3°C° 0 mm 2 mps 619 mmHg 56%
    21:00 -3°C° 0 mm 2 mps 620 mmHg 58%
    22:00 -3°C° 0 mm 2 mps 620 mmHg 58%
    23:00 -1°C° 0 mm 1 mps 620 mmHg 57%

    27 March, Wednesday

    Time Temperature Precipitation Wind Pressure Humidity
    00:00 -2°C° 0 mm 1 mps 620 mmHg 57%
    01:00 -2°C° 0 mm 1 mps 620 mmHg 58%
    02:00 -2°C° 0 mm 1 mps 620 mmHg 59%
    03:00 -2°C° 0 mm 1 mps 619 mmHg 60%
    04:00 -2°C° 0 mm 1 mps 619 mmHg 57%
    05:00 -2°C° 0 mm 1 mps 620 mmHg 54%
    06:00 -2°C° 0 mm 1 mps 620 mmHg 51%
    07:00 +1°C° 0 mm 1 mps 621 mmHg 42%
    08:00 +4°C° 0 mm 1 mps 622 mmHg 32%
    09:00 +7°C° 0 mm 1 mps 623 mmHg 23%
    10:00 +8°C° 0 mm 1 mps 624 mmHg 23%
    11:00 +9°C° 0 mm 1 mps 624 mmHg 23%
    12:00 +9°C° 0 mm 2 mps 625 mmHg 24%
    13:00 +9°C° 0 mm 2 mps 624 mmHg 27%
    14:00 +9°C° 0 mm 2 mps 624 mmHg 30%
    15:00 +8°C° 0 mm 2 mps 623 mmHg 34%
    16:00 +6°C° 0 mm 2 mps 622 mmHg 44%
    17:00 +4°C° 0 mm 2 mps 621 mmHg 54%
    18:00 +3°C° 0 mm 1 mps 621 mmHg 64%
    19:00 +2°C° 0 mm 1 mps 621 mmHg 67%
    20:00 +1°C° 0 mm 1 mps 621 mmHg 70%
    21:00 0°C° 0 mm 1 mps 621 mmHg 73%
    22:00 0°C° 0 mm 1 mps 621 mmHg 68%
    23:00 0°C° 0 mm 1 mps 621 mmHg 63%

    28 March, Thursday

    Time Temperature Precipitation Wind Pressure Humidity
    00:00 0°C° 0 mm 1 mps 620 mmHg 58%
    01:00 0°C° 0 mm 1 mps 620 mmHg 61%
    02:00 0°C° 0 mm 1 mps 620 mmHg 64%
    03:00 0°C° 0 mm 1 mps 620 mmHg 67%
    04:00 0°C° 0 mm 1 mps 620 mmHg 67%
    05:00 0°C° 0 mm 1 mps 620 mmHg 67%
    06:00 0°C° 0 mm 1 mps 620 mmHg 66%
    07:00 +2°C° 0 mm 1 mps 622 mmHg 57%
    08:00 +5°C° 0 mm 1 mps 623 mmHg 48%
    09:00 +6°C° 0 mm 2 mps 624 mmHg 39%
    10:00 +8°C° 0 mm 2 mps 624 mmHg 38%
    11:00 +9°C° 0 mm 2 mps 624 mmHg 37%
    12:00 +10°C° 0 mm 2 mps 625 mmHg 35%
    13:00 +9°C° 0 mm 2 mps 624 mmHg 38%
    14:00 +9°C° 0 mm 2 mps 624 mmHg 41%
    15:00 +9°C° 0 mm 2 mps 623 mmHg 44%
    16:00 +8°C° 0 mm 1 mps 622 mmHg 53%
    17:00 +6°C° 0 mm 1 mps 622 mmHg 62%
    18:00 +4°C° 0 mm 1 mps 621 mmHg 71%
    19:00 +3°C° 0 mm 1 mps 621 mmHg 76%
    20:00 +2°C° 0 mm 0 mps 621 mmHg 81%
    21:00 +1°C° 0 mm 0 mps 621 mmHg 86%
    22:00 0°C° 0 mm 0 mps 621 mmHg 87%
    23:00 0°C° 0 mm 0 mps 621 mmHg 89%

    29 March, Friday

    Time Temperature Precipitation Wind Pressure Humidity
    00:00 0°C° 0 mm 0 mps 621 mmHg 91%
    01:00 -1°C° 0 mm 0 mps 621 mmHg 91%
    02:00 -1°C° 0 mm 0 mps 621 mmHg 90%
    03:00 -1°C° 0 mm 0 mps 621 mmHg 90%
    04:00 -1°C° 0 mm 0 mps 621 mmHg 90%
    05:00 -1°C° 0 mm 0 mps 621 mmHg 90%
    06:00 0°C° 0 mm 1 mps 621 mmHg 90%
    07:00 +2°C° 0 mm 1 mps 622 mmHg 78%
    08:00 +5°C° 0 mm 1 mps 623 mmHg 67%
    09:00 +7°C° 0 mm 1 mps 624 mmHg 56%
    10:00 +7°C° 0.1 mm 1 mps 624 mmHg 57%
    11:00 +7°C° 0.1 mm 1 mps 623 mmHg 58%
    12:00 +7°C° 0.1 mm 1 mps 623 mmHg 59%
    13:00 +7°C° 0.1 mm 1 mps 622 mmHg 60%
    14:00 +6°C° 0.1 mm 1 mps 622 mmHg 62%
    15:00 +6°C° 0.1 mm 1 mps 622 mmHg 64%
    16:00 +5°C° 0.1 mm 1 mps 621 mmHg 68%
    17:00 +5°C° 0.1 mm 1 mps 621 mmHg 72%
    18:00 +4°C° 0.1 mm 1 mps 621 mmHg 75%
    19:00 +4°C° 0 mm 1 mps 621 mmHg 79%
    20:00 +3°C° 0 mm 1 mps 621 mmHg 82%
    21:00 +2°C° 0 mm 1 mps 621 mmHg 86%
    22:00 +2°C° 0 mm 1 mps 620 mmHg 88%
    23:00 +1°C° 0 mm 1 mps 620 mmHg 89%
    Show more